Regional Weather Roundup
Issued by NWS

Home | Current Version | Previous Version | Text Only | Print | Product List | Glossary Off
Versions: 1 2 3 4 5 6 7 8 9 10 11 12 13 14 15 16 17 18 19 20 21 22 23 24 25 26 27 28 29 30 31 32 33 34 35 36 37 38 39 40 41 42 43 44 45 46 47 48 49 50

000
ASUS45 KTFX 250010
RWRMT
MONTANA REGIONAL WEATHER ROUNDUP
NATIONAL WEATHER SERVICE GREAT FALLS MT
600 PM MDT SUN SEP 24 2017

NOTE: "FAIR" INDICATES FEW OR NO CLOUDS BELOW 12000 FEET WITH NO
SIGNIFICANT WEATHER AND/OR OBSTRUCTIONS TO VISIBILITY.

MTZ001>007-043-250100-
WEST OF THE DIVIDE

CITY           SKY/WX    TMP DP  RH WIND       PRES   REMARKS
KALISPELL      PTSUNNY   58  39  49 S8        30.05S
MISSOULA       SUNNY     56  37  49 NW9       30.05S
BUTTE          CLOUDY    49  27  42 SE3       30.08R
MULLAN PASS    CLOUDY    44  33  65 VRB5      30.11S
ANACONDA         N/A     48  28  46 CALM      30.07S
DEER LODGE       N/A     54  27  35 W6        30.07F
EUREKA           N/A     63  36  36 MISG      30.01F
HAMILTON         N/A     55  36  47 CALM      30.06S
LIBBY            N/A     64  36  34 CALM      30.01S
PLAINS           N/A     62  38  41 CALM      30.06S
$$

MTZ008-052>055-250100-
SOUTHWEST MONTANA

CITY           SKY/WX    TMP DP  RH WIND       PRES   REMARKS
BOZEMAN        CLOUDY    50  33  52 S7        30.08S
DILLON         PTSUNNY   50  26  39 NE9       30.06R
W YELLOWSTONE  CLOUDY    45  28  53 N9        30.04S
ENNIS          CLOUDY    48  30  49 NE12      30.11S
THREE FORKS      N/A     54  27  35 S3        30.06S
TWIN BRIDGES     N/A     54  24  31 CALM      30.04R
$$

MTZ009-010-012-014-046-048-049-054-250100-
EAST SLOPES AND CENTRAL MONTANA

CITY           SKY/WX    TMP DP  RH WIND       PRES   REMARKS
CUT BANK       SUNNY     58  25  28 W3        30.01S
GREAT FALLS    SUNNY     56  23  27 VRB3      30.04S
MALMSTROM AFB  SUNNY     56  24  29 SW3       30.04S
HELENA         SUNNY     58  27  30 E6        30.04S
BOWMANS CRNR     N/A     53  23  31 E5        30.02S
CHOTEAU          N/A     57  27  30 CALM      30.05R
FAIRFIELD        N/A     56  24  29 SE5       30.03S
POWER            N/A     55  24  30 S5        30.03S
RAYNESFORD       N/A     54  26  34 E6        30.05S
ULM              N/A     56  25  30 E3        30.04S
$$

MTZ011-013-016-021-045-047-050-051-250100-
NORTH CENTRAL MONTANA

CITY           SKY/WX    TMP DP  RH WIND       PRES   REMARKS
HAVRE          PTSUNNY   58  31  35 E5        30.04S
LEWISTOWN      CLOUDY    50  33  52 SE7       30.08S
N BAR RANCH    CLOUDY    46  36  66 SE5       30.11S
CHINOOK          N/A     61  34  36 CALM      30.05S
DENTON           N/A     53  33  45 CALM      30.03S HAZE
GEYSER         PTSUNNY   53  29  40 SE8       30.05S
JUDITH GAP     PTSUNNY   46  35  65 S7        30.08S
WINIFRED       CLOUDY    52  33  48 E8        30.06S
$$

MTZ017>020-022>027-061-062-250100-
NORTHEAST MONTANA

CITY           SKY/WX    TMP DP  RH WIND       PRES   REMARKS
GLASGOW        CLOUDY    53  37  54 CALM      30.09S
JORDAN           N/A     51  38  60 SE8       30.10S
SIDNEY           N/A    N/A N/A N/A MISG        N/A
WOLF POINT     CLOUDY    53  38  56 SE3       30.11R
MALTA          CLOUDY    55  37  50 SE7       30.08S
PLENTYWOOD       N/A     50  36  57 CALM      30.11R
POPLAR           N/A     54  36  50 NE6       30.11S
SCOBEY           N/A     51  32  48 MISG      30.08S
$$

MTZ028>42-056>058-250100-
SOUTHCENTRAL AND SOUTHEAST MONTANA

CITY           SKY/WX    TMP DP  RH WIND       PRES   REMARKS
BAKER          CLOUDY    46  38  73 N7        30.12R
BILLINGS       CLOUDY    52  35  52 NE6       30.09R
LIVINGSTON     CLOUDY    49  33  54 E8        30.07F
MILES CITY     CLOUDY    49  37  63 VRB3      30.12S
BIG TIMBER     CLOUDY    48  32  53 SE5       30.11S
EKALAKA          N/A     41  36  82 N1        30.08R
HARLOWTON      CLOUDY    49  34  55 MISG      30.08S
LAUREL           N/A     52  36  54 E6        30.10R
$$

REGIONAL REPORTS...DAKOTAS

CITY           SKY/WX    TMP DP  RH WIND       PRES   REMARKS
WILLISTON      CLOUDY    48  42  80 CALM      30.11F
MINOT          CLOUDY    50  45  83 NW9       30.07R
DICKINSON      CLOUDY    45  42  89 N8        30.09R
BEACH          CLOUDY    45  41  87 N7        30.14S
CROSBY         CLOUDY    50  41  71 NW3       30.11R
TIOGA          CLOUDY    46  45  93 N10       30.11R
BISMARCK       CLOUDY    52  46  80 NW10      30.07R
GRAND FORKS    CLOUDY    53  50  89 N13       29.94R
FARGO          CLOUDY    53  52  96 NW14      29.93F
BUFFALO SD       N/A     48  41  76 NW10      30.04R
RAPID CITY     CLOUDY    48  41  76 N13       30.09R
$$

REGIONAL REPORTS...WYOMING/IDAHO/WASHINGTON

CITY           SKY/WX    TMP DP  RH WIND       PRES   REMARKS
GILLETTE       CLOUDY    43  38  82 N5        30.11R
SHERIDAN       CLOUDY    46  39  76 NE5       30.11S
BUFFALO WY     CLOUDY    43  35  73 NE7       30.12R
CODY           CLOUDY    45  33  63 NW6       30.11R
IDAHO FALLS    PTSUNNY   52  33  48 NW14      30.01R
SALMON         PTSUNNY   55  28  35 N5        30.06S
BOISE          MOSUNNY   66  29  24 NW20      29.99S HAZE
SPOKANE        PTSUNNY   66  37  34 CALM      30.05F
$$

REGIONAL REPORTS...ALBERTA

CITY           SKY/WX    TMP DP  RH WIND       PRES   REMARKS
EDMONTON       CLOUDY    61  45  55 SW3       29.91S
CALGARY        PTSUNNY   59  32  36 S10       29.95F
LETHBRIDGE     MOSUNNY   61  25  25 SE7G21    29.98S
MEDICINE HAT   MOSUNNY   61  32  33 CALM      30.00S
$$

REGIONAL REPORTS...SASKATCHEWAN

CITY           SKY/WX    TMP DP  RH WIND       PRES   REMARKS
SWIFT CURRENT    N/A     54  32  43 S7        30.05S
REGINA         CLOUDY    54  34  47 NE5       30.10R
SASKATOON      PTCLDY    55  39  54 SE5       30.06F
$$



USA.gov is the U.S. government's official web portal to all federal, state and local government web resources and services.